FENGYUN 1C DEB, 31788

Orbit data source: Space-Track

FENGYUN 1C DEB, 31788 is space debris in SSO originally from a launch on Mon, 10 May 1999 UTC launched from the Taiyaun Space Center, China (TSC). Fengyun 1C debris stems from the Chinese weather satellite Fengyun-1C, which was intentionally destroyed by a Chinese anti-satellite missile in 2007. This event dramatically increased the amount of space debris, with thousands of trackable fragments posing hazards to satellites and human spaceflight. The Fengyun 1C debris cloud has become a focal point in discussions about space sustainability and the need for international regulations to prevent the creation of new debris.

Loading next visibility...
Identifier
31788, 1999-025CGP
Orbit
SSO
Country
Flag of CNCN / PRC
Related business
Manufacturer
Unknown
Mission
Spacecraft
Bus & Motor
Unknown
Mass
Unknown
Launch date (UTC)
1999-05-10 (27 years ago)
Launch vehicle
Unknown
Launch site
Taiyaun Space Center, China (TSC)
Object type
Payload
Rocket body
Debris
Shape & HBR
Unknown shape, 0.1 m
Radar Cross Section
Small (<0.1 m²)

Expand to show TLE details & history
Last TLE update: 1 day ago

TLE from 1 day ago
0 FENGYUN 1C DEB
1 31788U 99025CGP 26061.95293933  .00003214  00000-0  28556-2 0  9998
2 31788 102.5525 230.0966 0466601 269.4500 248.0250 13.45543354916839
Epoch: 2026-03-02T22:52Z
TLE epoch observation values (Epoch: 2026-03-02T22:52:13.958Z)
Latitude
26.70146°
Longitude
-87.30278°
Altitude
1,235.728 km
Speed
7.169 km/s
True Right ascension
03h 45m 58s
True Declination
26° 34' 20"
Sunlit
Object was in daylight at epoch
Visualization orbit readout
Latitude
Unknown
Longitude
Unknown
Altitude
Unknown
Speed
Unknown
Apparent Right ascension
Unknown
Apparent Declination
Unknown
Sunlit
N/A
Visualization observer readout
Local Sidereal Time
11:04:35
Azimuth
Unknown
Elevation
Unknown
Doppler factor
Unknown
Orbital elements
Apogee altitude
1,434.452 km
Perigee altitude
737.881 km
Semi-major axis
7,464.303 km
Eccentricity
0.04666
Inclination
102.5525°
RAAN
230.0966°
Arg. of periapsis
269.45°
True anomaly
243.17837°
Mean anomaly
248.025°
Eccentric anomaly
245.59054°
Mean motion
3.36557 °/min
Orbital period
106.97 mins
BSTAR
0.0028556
Loading maneuver chart data...
Computing Atmospheric mass density...

Documentation

Showing up to 5 results
|